Location: *
(46.4833°N, 7.6667°E)
Time: 06:37:18
(UTC+00:00)

Lacrosse 5 - Pass Details

Date: 27 February 2020
Orbit: 715 x 724 km, 57.0° (Epoch: 21 March)

Event Time Altitude Azimuth Distance (km) Brightness Sun altitude
Rises 20:29:07 0° 263° (W) 3,114 5.9 -33.9°
Reaches altitude 10° 20:31:40 10° 272° (W) 2,197 5.0 -34.3°
Enters shadow 20:34:52 29° 305° (NW) 1,288 3.6 -34.8°
